Retour au catalogue

FENGYUN 1C DEB

ActifSSO
NORAD 30245·DEBRIS·🇨🇳 China

Lancé May 10, 1999 depuis Taiyuan Satellite Launch Center

Loading…

Prochains Passages (prochaines 24 heures)

TLE

FraisSource: Space-Track

Époque: Sep 14, 2026, 09:03 UTC

1 30245U 99025XE  26257.37734417  .00000698  00000-0  62542-3 0  9992
2 30245  98.9106 233.6329 0190353 232.4852 125.8868 13.79697206984946

Suivez FENGYUN 1C DEB en temps réel avec AllMySat

Download on the App Store